Observations for Trim Market St
| Time | AQI | Temp °C | Hum % | Pres Pa | CO μg/m³ | H₂S μg/m³ | NO μg/m³ | NO₂ μg/m³ | O₃ μg/m³ | SO₂ μg/m³ | PM1 μg/m³ | PM2.5 μg/m³ | PM10 μg/m³ |
|---|---|---|---|---|---|---|---|---|---|---|---|---|---|
| Saturday 22 August 2026 | |||||||||||||
| 08:09 | 2 | 14.2 | 70 | 55,860 | 0.49 | 0 | 3.01 | 7.83 | 43.77 | 0 | 2.14 | 3.54 | 8.16 |
| 08:08 | 2 | 14.2 | 70 | 55,824 | 0.53 | 0 | 3.07 | 8.3 | 40.64 | 0 | 1.43 | 4.02 | 6.9 |
| 08:07 | 2 | 14.1 | 70 | 55,782 | 0.49 | 0 | 3.26 | 7.88 | 46.56 | 0 | 2.14 | 3.53 | 5.66 |
| 08:06 | 2 | 14 | 70 | 55,735 | 0.48 | 0 | 7.27 | 8.76 | 39.51 | 0 | 1.43 | 3.04 | 5.03 |
| 08:05 | 2 | 14 | 70 | 55,693 | 0.49 | 0 | 9.36 | 12.57 | 35.11 | 0 | 0.71 | 2.55 | 4.41 |
| 08:04 | 2 | 13.9 | 71 | 55,644 | 0.53 | 0 | 12.9 | 20.35 | 31.43 | 0 | 2.14 | 3.03 | 6.28 |
| 08:03 | 2 | 13.9 | 71 | 55,596 | 0.64 | 0 | 11.79 | 39.85 | 16.13 | 0 | 1.43 | 3.02 | 5.66 |
| 08:02 | 2 | 13.8 | 71 | 55,541 | 0.53 | 0 | 9.91 | 8.95 | 38.45 | 0 | 1.43 | 4.95 | 7.53 |
| 08:01 | 2 | 13.8 | 71 | 55,472 | 0.57 | 0 | 3.39 | 8.19 | 41.69 | 0 | 1.43 | 3.49 | 6.29 |
| 08:00 | 2 | 13.8 | 71 | 55,398 | 0.48 | 0 | 3.31 | 8.2 | 39.52 | 0 | 1.43 | 3.49 | 6.91 |
| 07:59 | 2 | 13.7 | 71 | 55,306 | 0.49 | 0 | 3.48 | 7.94 | 43.55 | 0 | 2.14 | 3 | 6.29 |
| 07:58 | 2 | 13.7 | 71 | 55,191 | 0.53 | 0 | 3.47 | 8.58 | 35.93 | 0 | 2.14 | 3.48 | 6.29 |
| 07:57 | 2 | 13.6 | 72 | 55,082 | 0.59 | 0 | 3.14 | 10.16 | 45.03 | 0 | 0.71 | 2.5 | 4.44 |
| 07:53 | 2 | 13.4 | 72 | 54,699 | 0.49 | 0 | 3.08 | 8.62 | 40.79 | 0 | 1.43 | 2.96 | 5.07 |
| 07:52 | 2 | 13.4 | 72 | 54,576 | 0.49 | 0 | 3.26 | 8.19 | 46.16 | 0 | 1.43 | 3.92 | 6.92 |
| 07:48 | 2 | 13.2 | 72 | 54,047 | 0.51 | 0 | 3.57 | 9.68 | 40.66 | 0 | 1.43 | 4.87 | 8.14 |
| 07:42 | 2 | 13 | 73 | 53,216 | 0.51 | 0 | 3.08 | 9.75 | 46.01 | 0 | 2.14 | 3.87 | 6.31 |
| 07:40 | 2 | 12.9 | 73 | 53,031 | 0.5 | 0 | 3.14 | 9.92 | 42.94 | 0 | 2.14 | 3.38 | 5.71 |
| 07:39 | 2 | 12.8 | 73 | 52,891 | 0.52 | 0 | 2.69 | 9.59 | 42.68 | 0 | 2.14 | 3.38 | 5.71 |
| 07:38 | 2 | 12.8 | 74 | 52,747 | 0.52 | 0 | 3.03 | 10.46 | 42.43 | 0 | 2.14 | 4.33 | 7.53 |